Location: Colle San Luigi
(43.5500°N, 13.4167°E)
Time: 09:59:18
(UTC+00:00)

SL-08 RB Rocket - Pass Details

Date: 09 April 2020
Orbit: 646 x 685 km, 97.8° (Epoch: 04 June)

Event Time Altitude Azimuth Distance (km) Brightness Sun altitude
Exits shadow 18:56:15 - 164° (SSE) 2,256 6.1 -13.4°
Reaches altitude 10° 18:56:41 10° 164° (SSE) 2,079 5.9 -13.5°
Maximum altitude 19:01:14 86° 75° (ENE) 678 3.7 -14.2°
Drops below altitude 10° 19:05:53 10° 348° (NNW) 2,120 6.8 -15.0°
Sets 19:08:08 0° 348° (NNW) 3,044 7.7 -15.3°
